TimeGMT,TemperatureF,Dew PointF,Humidity,Sea Level PressureIn,VisibilityMPH,Wind Direction,Wind SpeedMPH,Gust SpeedMPH,PrecipitationIn,Events,Conditions,WindDirDegrees,DateUTC
12:50 AM,30.2,30.2,100,29.98,1.4,West,2.3,-,N/A,,Mist,260,2012-11-06 00:50:00
1:50 AM,33.8,33.8,100,30.01,1.9,West,3.5,-,N/A,,Partly Cloudy,270,2012-11-06 01:50:00
2:50 AM,32,31,94,30.02,1,West,3.5,,,,Mist,260,2012-11-06 02:50:00
2:50 AM,32.0,30.2,93,30.01,1.5,West,3.5,-,N/A,,Partly Cloudy,260,2012-11-06 02:50:00
3:50 AM,32.0,32.0,100,30.01,1.7,SW,3.5,-,N/A,,Mist,230,2012-11-06 03:50:00
4:50 AM,33.8,33.8,100,30.01,-9999.0,WSW,3.5,-,N/A,,Mostly Cloudy,240,2012-11-06 04:50:00
5:50 AM,36,34,87,30.01,4,WSW,4.6,,,,Mist,240,2012-11-06 05:50:00
5:50 AM,35.6,33.8,93,30.01,3.7,WSW,4.6,-,N/A,,Haze,240,2012-11-06 05:50:00
6:50 AM,35.6,32.0,87,30.01,5.0,SW,5.8,-,N/A,,Haze,220,2012-11-06 06:50:00
7:50 AM,39.2,33.8,81,30.01,6.2,WSW,6.9,-,N/A,,Mostly Cloudy,250,2012-11-06 07:50:00
8:50 AM,42,38,79,30.01,9,West,3.5,,,,Mostly Cloudy,260,2012-11-06 08:50:00
8:50 AM,42.8,37.4,81,30.01,6.2,West,3.5,-,N/A,,Mostly Cloudy,260,2012-11-06 08:50:00
9:50 AM,48.2,41.0,76,29.98,6.2,West,13.8,-,N/A,,Overcast,270,2012-11-06 09:50:00
10:50 AM,48.2,42.8,82,29.98,6.2,West,9.2,-,N/A,,Overcast,270,2012-11-06 10:50:00
11:50 AM,49,45,83,29.98,12,West,15.0,,,Rain,Light Rain,270,2012-11-06 11:50:00
11:50 AM,50.0,44.6,82,29.98,6.2,West,15.0,-,N/A,Rain,Light Rain,270,2012-11-06 11:50:00
12:50 PM,50.0,44.6,82,29.98,6.2,West,13.8,-,N/A,Rain,Light Rain,280,2012-11-06 12:50:00
1:50 PM,51.8,44.6,76,29.95,6.2,West,21.9,34.5,N/A,,Overcast,280,2012-11-06 13:50:00
2:50 PM,51,45,72,29.98,19,West,21.9,,,Rain,Light Rain,280,2012-11-06 14:50:00
2:50 PM,51.8,44.6,76,29.98,6.2,West,21.9,34.5,N/A,Rain,Light Rain,280,2012-11-06 14:50:00
3:50 PM,50.0,44.6,82,29.98,6.2,WNW,17.3,-,N/A,Rain,Light Rain,290,2012-11-06 15:50:00
4:50 PM,51.8,44.6,76,29.98,6.2,West,18.4,-,N/A,,Mostly Cloudy,280,2012-11-06 16:50:00
5:50 PM,51,46,79,30.02,28,WNW,19.6,,,Rain,Light Rain Showers,290,2012-11-06 17:50:00
5:50 PM,51.8,46.4,82,30.01,6.2,WNW,19.6,-,N/A,Rain,Light Rain Showers,290,2012-11-06 17:50:00
6:50 PM,51.8,46.4,82,30.04,6.2,West,16.1,-,N/A,,Mostly Cloudy,280,2012-11-06 18:50:00
7:50 PM,51.8,46.4,82,30.04,6.2,WNW,18.4,-,N/A,,Scattered Clouds,290,2012-11-06 19:50:00
8:50 PM,51,44,70,30.06,34,West,13.8,,,,Partly Cloudy,270,2012-11-06 20:50:00
8:50 PM,51.8,44.6,76,30.06,6.2,West,13.8,-,N/A,,Mostly Cloudy,270,2012-11-06 20:50:00
9:50 PM,50.0,44.6,82,30.06,6.2,West,17.3,-,N/A,,Mostly Cloudy,280,2012-11-06 21:50:00
10:50 PM,50.0,42.8,76,30.09,6.2,West,12.7,-,N/A,,Scattered Clouds,280,2012-11-06 22:50:00
11:50 PM,49,40,61,30.11,14,WNW,12.7,,,,,290,2012-11-06 23:50:00
11:50 PM,48.2,39.2,71,30.09,6.2,WNW,12.7,-,N/A,,Unknown,290,2012-11-06 23:50:00